Location: Caserta
(41.0670°N, 14.3330°E)
Time: 04:16:55
(UTC+02:00)

STARLINK-1341 - Pass Details

Date: 07 October 2020
Orbit: 549 x 550 km, 53.0° (Epoch: 20 October)

Event Time Altitude Azimuth Distance (km) Brightness Sun altitude
Exits shadow 05:32:49 12° 330° (NNW) 1,704 5.9 -18.3°
Maximum altitude 05:34:47 16° 1° (N) 1,504 5.9 -17.9°
Drops below altitude 10° 05:37:18 10° 39° (NE) 1,825 6.9 -17.5°
Sets 05:40:20 0° 62° (ENE) 2,719 8.5 -16.9°
